Flag for Italy Weather past 2 weeks in Ancona, Italy

Now
45 °F

Passing clouds.


Feels Like: 43 °F
Forecast: 46 / 54 °F
Wind: 3 mph from South

Location: Falconara

Current Time: Feb 27, 2015 at 7:10:57 AM

Latest Report: Feb 27, 2015 at 5:50 AM


Visibility: N/A

Pressure: 29.89 "Hg

Humidity: 100%

Dew point: 45 °F

Location of AnconaLocation

Historic Weather in Ancona — Graph

°F

Ancona temperature yesterday

Maximum temperature yesterday: 52 °F (at 9:50 AM)
Minimum temperature yesterday: 48 °F (at 7:50 AM)
Average temperature yesterday: 50 °F

Past Weeks' High & Low Weather Summary

 TemperatureHumidityPressure
High57 °F (Feb 15, 1:50 PM)100% (Feb 12, 5:50 AM)30.60 "Hg (Feb 12, 5:50 AM)
Low30 °F (Feb 20, 4:50 AM)43% (Feb 18, 3:50 PM)29.45 "Hg (Feb 22, 5:50 AM)
Average46 °F82%30.02 "Hg
* Reported Feb 12 5:50 AM — Feb 27 5:50 AM, Ancona, Weather by CustomWeather, © 2015

Note: Actual official high and low records may vary slightly from our data, if they occured in-between our weather recording intervals... More about our weather records

Advertising

Ancona weather history for previous 24 hours

 ConditionsComfort  
Time TempWeatherWind HumidityBarometerVisibility
5:50 AM
Fri, Feb 27
45 °FPassing clouds.3 mph100%29.89 "HgN/A
4:50 AM46 °FPassing clouds.5 mph93%29.89 "HgN/A
3:50 AM46 °FLight rain. Passing clouds.3 mph93%29.92 "Hg5 mi
2:50 AM46 °FLight rain. Passing clouds.3 mph93%29.92 "HgN/A
1:50 AM46 °FLight rain. Passing clouds.3 mph93%29.95 "HgN/A
12:50 AM48 °FPassing clouds.3 mph87%29.95 "HgN/A
11:50 PM
Thu, Feb 26
48 °FPartly cloudy.3 mph87%29.98 "HgN/A
10:50 PM48 °FPassing clouds.2 mph87%29.98 "HgN/A
9:50 PM48 °FLight rain. Passing clouds.2 mph87%30.01 "HgN/A
8:50 PM48 °FPassing clouds.2 mph82%30.01 "HgN/A
7:50 PM50 °FPassing clouds.2 mph76%30.01 "HgN/A
6:50 PM50 °FPassing clouds.No wind71%30.01 "HgN/A
5:50 PM50 °FPassing clouds.1 mph71%30.01 "HgN/A
4:50 PM52 °FPartly sunny.6 mph62%30.01 "HgN/A
3:50 PM52 °FPartly sunny.3 mph62%30.01 "HgN/A
2:50 PM52 °FBroken clouds.6 mph62%30.01 "HgN/A
1:50 PM52 °FBroken clouds.5 mph67%30.01 "HgN/A
12:50 PM52 °FBroken clouds.5 mph67%30.01 "HgN/A
10:50 AM52 °FBroken clouds.7 mph67%30.04 "HgN/A
9:50 AM52 °FBroken clouds.6 mph67%30.01 "HgN/A
8:50 AM48 °FBroken clouds.2 mph87%30.01 "HgN/A
7:50 AM48 °FScattered clouds.1 mph82%29.98 "HgN/A
Weather by CustomWeather, © 2015

See weather overviewHow to use our weather pages